THY51N LTFM-LSZH

Flight info

Callsign THY51N
Flight time N/A
Altitude 36000
Route VADEN N618 BAKLO DCT XANEX DCT UTEKA DCT LAKIK DCT BEDOX DCT ERKIR DCT KPT L856 NEGRA
Aircraft A320/M-SDE3FGHIRWY/LB1

Departure

Time 2026-02-19 13:08
Airport İstanbul Airport (LTFM)

Arrival

Time N/A
Airport Zürich Airport (LSZH)
Time Latitude Longitude Altitude Speed Heading
2026-02-19 12:35 41.25824 28.73504 334 ft 0 kts 107°
2026-02-19 12:41 41.25824 28.73503 334 ft 0 kts 107°
2026-02-19 12:53 41.25824 28.73501 334 ft 1 kts 107°
2026-02-19 12:54 41.25829 28.73480 332 ft 3 kts 109°
2026-02-19 12:54 41.25836 28.73454 329 ft 3 kts 113°
2026-02-19 12:54 41.25845 28.73430 330 ft 3 kts 121°
2026-02-19 12:54 41.25856 28.73409 330 ft 3 kts 143°
2026-02-19 12:55 41.25870 28.73400 331 ft 2 kts 192°
2026-02-19 12:55 41.25873 28.73400 332 ft 3 kts 197°
2026-02-19 12:58 41.25871 28.73400 331 ft 1 kts 197°
2026-02-19 12:58 41.25854 28.73393 332 ft 4 kts 199°
2026-02-19 12:58 41.25830 28.73361 332 ft 6 kts 240°
2026-02-19 12:59 41.25824 28.73295 334 ft 8 kts 266°
2026-02-19 12:59 41.25823 28.73207 334 ft 11 kts 269°
2026-02-19 12:59 41.25783 28.73130 330 ft 12 kts 187°
2026-02-19 12:59 41.25693 28.73133 333 ft 14 kts 179°
2026-02-19 13:00 41.25590 28.73135 332 ft 16 kts 179°
2026-02-19 13:00 41.25357 28.73129 334 ft 14 kts 207°
2026-02-19 13:00 41.25340 28.72993 334 ft 18 kts 270°
2026-02-19 13:01 41.25338 28.72820 334 ft 20 kts 268°
2026-02-19 13:01 41.25335 28.72632 331 ft 21 kts 269°
2026-02-19 13:01 41.25333 28.72432 333 ft 22 kts 269°
2026-02-19 13:01 41.25377 28.72240 332 ft 23 kts 320°
2026-02-19 13:02 41.25535 28.72211 330 ft 24 kts 359°
2026-02-19 13:02 41.25710 28.72207 332 ft 26 kts
2026-02-19 13:02 41.25897 28.72237 331 ft 28 kts
2026-02-19 13:02 41.26097 28.72272 331 ft 30 kts
2026-02-19 13:03 41.26309 28.72297 332 ft 32 kts 358°
2026-02-19 13:03 41.26535 28.72291 332 ft 33 kts 359°
2026-02-19 13:03 41.26771 28.72286 333 ft 35 kts 359°
2026-02-19 13:03 41.27018 28.72278 334 ft 36 kts
2026-02-19 13:04 41.27273 28.72274 330 ft 37 kts 359°
2026-02-19 13:04 41.27810 28.72263 334 ft 40 kts 359°
2026-02-19 13:04 41.28090 28.72255 333 ft 41 kts 359°
2026-02-19 13:05 41.28376 28.72248 332 ft 42 kts 359°
2026-02-19 13:05 41.28665 28.72240 334 ft 41 kts 358°
2026-02-19 13:05 41.28919 28.72236 333 ft 36 kts 359°
2026-02-19 13:05 41.29177 28.72228 330 ft 38 kts 358°
2026-02-19 13:06 41.29369 28.72226 334 ft 22 kts 359°
2026-02-19 13:06 41.29482 28.72266 332 ft 15 kts 67°
2026-02-19 13:06 41.29485 28.72408 334 ft 16 kts 91°
2026-02-19 13:06 41.29400 28.72465 332 ft 12 kts 180°
2026-02-19 13:07 41.29362 28.72465 334 ft 0 kts 179°
2026-02-19 13:07 41.29202 28.72468 333 ft 56 kts 179°
2026-02-19 13:07 41.28610 28.72481 331 ft 111 kts 178°
2026-02-19 13:08 41.27687 28.72496 349 ft 152 kts 185°
2026-02-19 13:08 41.25570 28.72513 1542 ft 151 kts 185°
2026-02-19 13:08 41.24514 28.72402 2132 ft 154 kts 189°
2026-02-19 13:09 41.23410 28.72311 2544 ft 168 kts 181°
2026-02-19 13:09 41.22163 28.72412 2763 ft 191 kts 179°
2026-02-19 13:09 41.20771 28.72555 3046 ft 210 kts 180°
2026-02-19 13:09 41.19253 28.72513 3498 ft 222 kts 200°
2026-02-19 13:10 41.17979 28.71307 3958 ft 238 kts 238°
2026-02-19 13:10 41.17491 28.69182 4673 ft 248 kts 265°
2026-02-19 13:10 41.17502 28.66875 5531 ft 252 kts 274°
2026-02-19 13:10 41.17644 28.64537 6419 ft 256 kts 275°